Time,TemperatureF,DewpointF,PressureIn,WindDirection,WindDirectionDegrees,WindSpeedMPH,WindSpeedGustMPH,Humidity,HourlyPrecipIn,Conditions,Clouds,dailyrainin,SoftwareType,DateUTC
2013-08-04 00:02:00,79.0,53.0,30.17,ESE,105,1.0,4.0,40,0.00,,,0.00,,2013-08-04 05:02:00,
2013-08-04 00:12:00,79.0,53.0,30.17,ESE,105,1.0,4.0,40,0.00,,,0.00,,2013-08-04 05:12:00,
2013-08-04 07:52:00,69.0,57.0,30.20,West,268,1.0,5.0,65,0.00,,,0.00,,2013-08-04 12:52:00,
2013-08-04 08:02:00,69.0,57.0,30.20,West,268,1.0,5.0,65,0.00,,,0.00,,2013-08-04 13:02:00,
2013-08-04 08:12:00,69.0,57.0,30.20,West,268,1.0,5.0,65,0.00,,,0.00,,2013-08-04 13:12:00,
2013-08-04 08:22:00,70.0,57.0,30.21,WNW,286,1.0,6.0,63,0.00,,,0.00,,2013-08-04 13:22:00,
2013-08-04 08:32:00,70.0,57.0,30.21,WNW,286,1.0,6.0,63,0.00,,,0.00,,2013-08-04 13:32:00,
2013-08-04 08:43:00,70.0,57.0,30.21,WNW,286,1.0,6.0,63,0.00,,,0.00,,2013-08-04 13:43:00,
2013-08-04 08:52:00,72.0,57.0,30.22,West,267,2.0,6.0,59,0.00,,,0.00,,2013-08-04 13:52:00,
2013-08-04 09:02:00,72.0,57.0,30.22,West,267,2.0,6.0,59,0.00,,,0.00,,2013-08-04 14:02:00,
2013-08-04 09:12:00,72.0,57.0,30.22,West,267,2.0,6.0,59,0.00,,,0.00,,2013-08-04 14:12:00,
2013-08-04 09:22:00,76.0,57.0,30.23,SW,215,1.0,6.0,52,0.00,,,0.00,,2013-08-04 14:22:00,
2013-08-04 09:32:00,76.0,57.0,30.23,SW,215,1.0,6.0,52,0.00,,,0.00,,2013-08-04 14:32:00,
2013-08-04 09:43:00,76.0,57.0,30.23,SW,215,1.0,6.0,52,0.00,,,0.00,,2013-08-04 14:43:00,
2013-08-04 09:53:00,78.0,56.0,30.24,SSW,193,5.0,13.0,46,0.00,,,0.00,,2013-08-04 14:53:00,
2013-08-04 10:02:00,78.0,56.0,30.24,SSW,193,5.0,13.0,46,0.00,,,0.00,,2013-08-04 15:02:00,
2013-08-04 10:12:00,78.0,56.0,30.24,SSW,193,5.0,13.0,46,0.00,,,0.00,,2013-08-04 15:12:00,
2013-08-04 10:22:00,79.0,56.0,30.22,West,271,2.0,12.0,46,0.00,,,0.00,,2013-08-04 15:22:00,
2013-08-04 10:32:00,79.0,56.0,30.22,West,271,2.0,12.0,46,0.00,,,0.00,,2013-08-04 15:32:00,
2013-08-04 10:43:00,79.0,56.0,30.22,West,271,2.0,12.0,46,0.00,,,0.00,,2013-08-04 15:43:00,
2013-08-04 10:53:00,81.0,56.0,30.23,SW,226,7.0,13.0,42,0.00,,,0.00,,2013-08-04 15:53:00,
2013-08-04 11:02:00,81.0,56.0,30.23,SW,226,7.0,13.0,42,0.00,,,0.00,,2013-08-04 16:02:00,
2013-08-04 11:12:00,81.0,56.0,30.23,SW,226,7.0,13.0,42,0.00,,,0.00,,2013-08-04 16:12:00,
2013-08-04 11:22:00,83.0,55.0,30.22,WSW,252,8.0,13.0,39,0.00,,,0.00,,2013-08-04 16:22:00,
2013-08-04 11:33:00,83.0,55.0,30.22,WSW,252,8.0,13.0,39,0.00,,,0.00,,2013-08-04 16:33:00,
2013-08-04 11:43:00,83.0,55.0,30.22,WSW,252,8.0,13.0,39,0.00,,,0.00,,2013-08-04 16:43:00,
2013-08-04 11:53:00,85.0,56.0,30.23,West,267,4.0,12.0,37,0.00,,,0.00,,2013-08-04 16:53:00,
2013-08-04 12:02:00,85.0,56.0,30.23,West,267,4.0,12.0,37,0.00,,,0.00,,2013-08-04 17:02:00,
2013-08-04 12:12:00,85.0,56.0,30.23,West,267,4.0,12.0,37,0.00,,,0.00,,2013-08-04 17:12:00,
2013-08-04 12:22:00,87.0,55.0,30.22,SW,221,2.0,12.0,34,0.00,,,0.00,,2013-08-04 17:22:00,
2013-08-04 12:32:00,87.0,55.0,30.22,SW,221,2.0,12.0,34,0.00,,,0.00,,2013-08-04 17:32:00,
2013-08-04 12:43:00,87.0,55.0,30.22,SW,221,2.0,12.0,34,0.00,,,0.00,,2013-08-04 17:43:00,
2013-08-04 12:53:00,89.0,57.0,30.22,WNW,299,1.0,11.0,34,0.00,,,0.00,,2013-08-04 17:53:00,
2013-08-04 13:02:00,89.0,57.0,30.22,WNW,299,1.0,11.0,34,0.00,,,0.00,,2013-08-04 18:02:00,
2013-08-04 13:12:00,89.0,57.0,30.22,WNW,299,1.0,11.0,34,0.00,,,0.00,,2013-08-04 18:12:00,
2013-08-04 13:22:00,89.0,58.0,30.20,SE,143,3.0,11.0,35,0.00,,,0.00,,2013-08-04 18:22:00,
2013-08-04 13:33:00,89.0,58.0,30.20,SE,143,3.0,11.0,35,0.00,,,0.00,,2013-08-04 18:33:00,
2013-08-04 13:43:00,89.0,58.0,30.20,SE,143,3.0,11.0,35,0.00,,,0.00,,2013-08-04 18:43:00,
2013-08-04 13:52:00,91.0,57.0,30.19,ESE,117,2.0,12.0,32,0.00,,,0.00,,2013-08-04 18:52:00,
2013-08-04 14:02:00,91.0,57.0,30.19,ESE,117,2.0,12.0,32,0.00,,,0.00,,2013-08-04 19:02:00,
2013-08-04 14:12:00,91.0,57.0,30.19,ESE,117,2.0,12.0,32,0.00,,,0.00,,2013-08-04 19:12:00,
2013-08-04 14:22:00,89.0,56.0,30.18,SW,221,4.0,15.0,33,0.00,,,0.00,,2013-08-04 19:22:00,
2013-08-04 14:32:00,89.0,56.0,30.18,SW,221,4.0,15.0,33,0.00,,,0.00,,2013-08-04 19:32:00,
2013-08-04 14:44:00,89.0,56.0,30.18,SW,221,4.0,15.0,33,0.00,,,0.00,,2013-08-04 19:44:00,
2013-08-04 14:53:00,91.0,56.0,30.18,SSW,194,7.0,11.0,31,0.00,,,0.00,,2013-08-04 19:53:00,
2013-08-04 15:02:00,91.0,56.0,30.18,SSW,194,7.0,11.0,31,0.00,,,0.00,,2013-08-04 20:02:00,
2013-08-04 15:12:00,91.0,56.0,30.18,SSW,194,7.0,11.0,31,0.00,,,0.00,,2013-08-04 20:12:00,
2013-08-04 15:22:00,92.0,58.0,30.16,SW,221,4.0,9.0,32,0.00,,,0.00,,2013-08-04 20:22:00,
2013-08-04 15:33:00,92.0,58.0,30.16,SW,221,4.0,9.0,32,0.00,,,0.00,,2013-08-04 20:33:00,
2013-08-04 15:43:00,92.0,58.0,30.16,SW,221,4.0,9.0,32,0.00,,,0.00,,2013-08-04 20:43:00,
2013-08-04 15:53:00,92.0,57.0,30.16,South,179,5.0,14.0,31,0.00,,,0.00,,2013-08-04 20:53:00,
2013-08-04 16:02:00,92.0,57.0,30.16,South,179,5.0,14.0,31,0.00,,,0.00,,2013-08-04 21:02:00,
2013-08-04 16:12:00,92.0,57.0,30.16,South,179,5.0,14.0,31,0.00,,,0.00,,2013-08-04 21:12:00,
2013-08-04 16:22:00,90.0,56.0,30.15,West,281,1.0,13.0,32,0.00,,,0.00,,2013-08-04 21:22:00,
2013-08-04 16:32:00,90.0,56.0,30.15,West,281,1.0,13.0,32,0.00,,,0.00,,2013-08-04 21:32:00,
2013-08-04 16:43:00,90.0,56.0,30.15,West,281,1.0,13.0,32,0.00,,,0.00,,2013-08-04 21:43:00,
2013-08-04 16:53:00,91.0,56.0,30.14,NNW,346,4.0,9.0,31,0.00,,,0.00,,2013-08-04 21:53:00,
2013-08-04 17:02:00,91.0,56.0,30.14,NNW,346,4.0,9.0,31,0.00,,,0.00,,2013-08-04 22:02:00,
2013-08-04 17:12:00,91.0,56.0,30.14,NNW,346,4.0,9.0,31,0.00,,,0.00,,2013-08-04 22:12:00,
2013-08-04 17:22:00,93.0,57.0,30.13,NNE,22,3.0,12.0,30,0.00,,,0.00,,2013-08-04 22:22:00,
2013-08-04 17:32:00,93.0,57.0,30.13,NNE,22,3.0,12.0,30,0.00,,,0.00,,2013-08-04 22:32:00,
2013-08-04 17:43:00,93.0,57.0,30.13,NNE,22,3.0,12.0,30,0.00,,,0.00,,2013-08-04 22:43:00,
2013-08-04 17:53:00,95.0,58.0,30.12,ESE,107,6.0,10.0,29,0.00,,,0.00,,2013-08-04 22:53:00,
2013-08-04 18:02:00,95.0,58.0,30.12,ESE,107,6.0,10.0,29,0.00,,,0.00,,2013-08-04 23:02:00,
2013-08-04 18:12:00,95.0,58.0,30.12,ESE,107,6.0,10.0,29,0.00,,,0.00,,2013-08-04 23:12:00,
2013-08-04 18:22:00,94.0,57.0,30.11,East,94,5.0,10.0,29,0.00,,,0.00,,2013-08-04 23:22:00,
2013-08-04 18:32:00,94.0,57.0,30.11,East,94,5.0,10.0,29,0.00,,,0.00,,2013-08-04 23:32:00,
2013-08-04 18:43:00,94.0,57.0,30.11,East,94,5.0,10.0,29,0.00,,,0.00,,2013-08-04 23:43:00,
2013-08-04 18:53:00,93.0,56.0,30.11,East,100,6.0,9.0,29,0.00,,,0.00,,2013-08-04 23:53:00,
2013-08-04 19:02:00,93.0,56.0,30.11,East,100,6.0,9.0,29,0.00,,,0.00,,2013-08-05 00:02:00,
2013-08-04 19:12:00,93.0,56.0,30.11,East,100,6.0,9.0,29,0.00,,,0.00,,2013-08-05 00:12:00,
2013-08-04 19:22:00,92.0,56.0,30.11,ESE,114,5.0,9.0,30,0.00,,,0.00,,2013-08-05 00:22:00,
2013-08-04 19:32:00,92.0,56.0,30.11,ESE,114,5.0,9.0,30,0.00,,,0.00,,2013-08-05 00:32:00,
2013-08-04 19:42:00,92.0,56.0,30.11,ESE,114,5.0,9.0,30,0.00,,,0.00,,2013-08-05 00:42:00,
2013-08-04 19:53:00,89.0,55.0,30.11,SE,130,5.0,9.0,32,0.00,,,0.00,,2013-08-05 00:53:00,
2013-08-04 20:02:00,89.0,55.0,30.11,SE,130,5.0,9.0,32,0.00,,,0.00,,2013-08-05 01:02:00,
2013-08-04 20:12:00,89.0,55.0,30.11,SE,130,5.0,9.0,32,0.00,,,0.00,,2013-08-05 01:12:00,
2013-08-04 20:22:00,87.0,55.0,30.12,SSE,158,9.0,12.0,34,0.00,,,0.00,,2013-08-05 01:22:00,
2013-08-04 20:33:00,87.0,55.0,30.12,SSE,158,9.0,12.0,34,0.00,,,0.00,,2013-08-05 01:33:00,
2013-08-04 20:43:00,87.0,55.0,30.12,SSE,158,9.0,12.0,34,0.00,,,0.00,,2013-08-05 01:43:00,
2013-08-04 20:52:00,85.0,54.0,30.12,SE,142,3.0,10.0,35,0.00,,,0.00,,2013-08-05 01:52:00,
2013-08-04 21:02:00,85.0,54.0,30.12,SE,142,3.0,10.0,35,0.00,,,0.00,,2013-08-05 02:02:00,
2013-08-04 21:12:00,85.0,54.0,30.12,SE,142,3.0,10.0,35,0.00,,,0.00,,2013-08-05 02:12:00,
2013-08-04 21:22:00,83.0,53.0,30.10,SE,130,5.0,15.0,36,0.00,,,0.00,,2013-08-05 02:22:00,
2013-08-04 21:33:00,83.0,53.0,30.10,SE,130,5.0,15.0,36,0.00,,,0.00,,2013-08-05 02:33:00,
2013-08-04 21:43:00,83.0,53.0,30.10,SE,130,5.0,15.0,36,0.00,,,0.00,,2013-08-05 02:43:00,
2013-08-04 21:53:00,82.0,54.0,30.11,ESE,112,1.0,6.0,38,0.00,,,0.00,,2013-08-05 02:53:00,
2013-08-04 22:02:00,82.0,54.0,30.11,ESE,112,1.0,6.0,38,0.00,,,0.00,,2013-08-05 03:02:00,
2013-08-04 22:12:00,82.0,54.0,30.11,ESE,112,1.0,6.0,38,0.00,,,0.00,,2013-08-05 03:12:00,
2013-08-04 22:22:00,81.0,56.0,30.15,SSE,155,3.0,12.0,43,0.00,,,0.00,,2013-08-05 03:22:00,
2013-08-04 22:32:00,81.0,56.0,30.15,SSE,155,3.0,12.0,43,0.00,,,0.00,,2013-08-05 03:32:00,
2013-08-04 22:42:00,81.0,56.0,30.15,SSE,155,3.0,12.0,43,0.00,,,0.00,,2013-08-05 03:42:00,
2013-08-04 22:52:00,80.0,57.0,30.15,ESE,108,1.0,7.0,46,0.00,,,0.00,,2013-08-05 03:52:00,
2013-08-04 23:02:00,80.0,57.0,30.15,ESE,108,1.0,7.0,46,0.00,,,0.00,,2013-08-05 04:02:00,
2013-08-04 23:12:00,80.0,57.0,30.15,ESE,108,1.0,7.0,46,0.00,,,0.00,,2013-08-05 04:12:00,
2013-08-04 23:22:00,79.0,58.0,30.16,East,94,0.0,2.0,49,0.00,,,0.00,,2013-08-05 04:22:00,
2013-08-04 23:32:00,79.0,58.0,30.16,East,94,0.0,2.0,49,0.00,,,0.00,,2013-08-05 04:32:00,
2013-08-04 23:43:00,79.0,58.0,30.16,East,94,0.0,2.0,49,0.00,,,0.00,,2013-08-05 04:43:00,
2013-08-04 23:52:00,78.0,59.0,30.17,North,350,0.0,1.0,52,0.00,,,0.00,,2013-08-05 04:52:00,